sat.trackr.live / text

‹ back to catalog

STARLINK-31848

NORAD 59784 · 2024-093C

PAYLOAD ACTIVE UNKNOWN

§ Identity

Operator
Country
US
Launch date
2024-05-18
Launch site
AFETR
Launch vehicle
Mass (kg)
RCS (m²)

Purposes: comms

External: N2YO · Heavens-Above · Gunter

§ Orbital elements

Epoch: 2026-09-21T04:21:47.586528Z

Period
94.27 min
Inclination
43.0008°
Eccentricity
0.0001171
Mean motion
15.27579389 rev/d
Perigee alt
482.2 km
Apogee alt
483.9 km
Semi-major
6,861.2 km
B*
2.6767e-5
RAAN
181.3807°
Arg perigee
264.0497°
Mean anomaly
96.0221°
Rev number
13,263

§ Raw data

STARLINK-318481 59784U 24093C   26264.18180077  .00000475  00000+0  26767-4 0  99902 59784  43.0008 181.3807 0001171 264.0497  96.0221 15.27579389132631

JSON: /api/v1/satellites/59784 · /tle

For live sub-satellite position, see the globe view (requires WebGL).

§ Visibility from observer

Set your observer location to see the next 7 days of passes ≥ 10°. The values pass through the URL so the page stays shareable.

No JS? Fill the form by hand. The geolocation button needs JavaScript.